FICHTELBE Weather Reports


Display with metric or nautical units.
time (UTC)temp
F
wind
direction
speed
MPH
gust
MPH
rain 1hr
in
rain 24hr
in
rain mn
in
humidity
%
barometer
mb
20201026121709 41 210 7.0 0.0 0.00 0.00 0.00 99
20201026111810 43 160 8.0 0.0 0.00 0.00 0.00 93
20201026101807 41 160 8.0 0.0 0.00 0.00 0.00 99
20201026091810 41 130 20.0 0.0 0.00 0.00 0.00 99
20201026081735 39 140 17.0 0.0 0.00 0.00 0.00 99
20201026071709 39 120 20.0 0.0 0.00 0.00 0.00 93
20201026061710 39 130 17.0 0.0 0.00 0.00 0.00 99
20201026051709 39 120 16.0 0.0 0.00 0.00 0.00 99
20201026041710 39 130 17.0 0.0 0.00 0.00 0.00 93
20201026031709 45 140 20.0 26.0 0.00 0.00 0.00 65
20201026021709 46 170 22.0 0.0 0.00 0.00 0.00 61
20201026011709 45 190 17.0 0.0 0.00 0.00 0.00 65
20201026001712 46 180 17.0 0.0 0.00 0.00 0.00 61
20201025231711 46 210 20.0 0.0 0.00 0.00 0.00 61
20201025221712 45 230 23.0 0.0 0.00 0.00 0.00 65
20201025211716 45 230 25.0 0.0 0.00 0.00 0.00 75
20201025201710 43 220 23.0 0.0 0.00 0.00 0.00 99
20201025191710 43 210 26.0 33.0 0.00 0.00 0.00 99
20201025181710 45 190 26.0 0.0 0.00 0.00 0.00 87
20201025171711 45 190 26.0 33.0 0.00 0.00 0.00 87
20201025161711 45 190 31.0 0.0 0.00 0.00 0.00 81
20201025151709 46 190 32.0 39.0 0.00 0.00 0.00 81
20201025141709 48 190 23.0 32.0 0.00 0.00 0.00 76
20201025131709 46 190 23.0 31.0 0.00 0.00 0.00 81